Year,Month,Day,Hour,Minute,Value (Times are PST for windspeed in km/hr)
2021,01,04,00,00,20.10
2021,01,04,00,01,14.50
2021,01,04,00,02,14.50
2021,01,04,00,03,18.20
2021,01,04,00,04,25.30
2021,01,04,00,05,24.10
2021,01,04,00,06,19.50
2021,01,04,00,07,23.20
2021,01,04,00,08,21.40
2021,01,04,00,09,25.10
2021,01,04,00,10,20.50
2021,01,04,00,11,17.20
2021,01,04,00,12,19.10
2021,01,04,00,13,18.80
2021,01,04,00,14,15.70
2021,01,04,00,15,21.00
2021,01,04,00,16,20.30
2021,01,04,00,17,17.80
2021,01,04,00,18,27.20
2021,01,04,00,19,20.80
2021,01,04,00,20,17.70
2021,01,04,00,21,20.00
2021,01,04,00,22,24.10
2021,01,04,00,23,16.50
2021,01,04,00,24,19.40
2021,01,04,00,25,15.50
2021,01,04,00,26,18.20
2021,01,04,00,27,18.50
2021,01,04,00,28,20.80
2021,01,04,00,29,18.10
2021,01,04,00,30,16.90
2021,01,04,00,31,21.50
2021,01,04,00,32,19.20
2021,01,04,00,33,20.40
2021,01,04,00,34,22.00
2021,01,04,00,35,19.00
2021,01,04,00,36,19.10
2021,01,04,00,37,21.10
2021,01,04,00,38,22.90
2021,01,04,00,39,17.70
2021,01,04,00,40,18.50
2021,01,04,00,41,25.50
2021,01,04,00,42,17.00
2021,01,04,00,43,13.70
2021,01,04,00,44,22.80
2021,01,04,00,45,25.40
2021,01,04,00,46,19.80
2021,01,04,00,47,20.20
2021,01,04,00,48,25.80
2021,01,04,00,49,21.60
2021,01,04,00,50,20.70
2021,01,04,00,51,23.10
2021,01,04,00,52,19.40
2021,01,04,00,53,22.80
2021,01,04,00,54,26.30
2021,01,04,00,55,21.70
2021,01,04,00,56,20.10
2021,01,04,00,57,15.40
2021,01,04,00,58,20.10
2021,01,04,00,59,18.00
2021,01,04,01,00,27.40
2021,01,04,01,01,19.80
2021,01,04,01,02,19.80
2021,01,04,01,03,21.70
2021,01,04,01,04,17.50
2021,01,04,01,05,25.30
2021,01,04,01,06,18.30
2021,01,04,01,07,22.40
2021,01,04,01,08,18.00
2021,01,04,01,09,24.40
2021,01,04,01,10,18.20
2021,01,04,01,11,18.60
2021,01,04,01,12,22.30
2021,01,04,01,13,19.70
2021,01,04,01,14,20.60
2021,01,04,01,15,18.60
2021,01,04,01,16,17.80
2021,01,04,01,17,16.70
2021,01,04,01,18,19.20
2021,01,04,01,19,20.60
2021,01,04,01,20,21.00
2021,01,04,01,21,14.80
2021,01,04,01,22,16.30
2021,01,04,01,23,19.70
2021,01,04,01,24,18.90
2021,01,04,01,25,21.40
2021,01,04,01,26,24.40
2021,01,04,01,27,21.00
2021,01,04,01,28,24.60
2021,01,04,01,29,22.30
2021,01,04,01,30,20.40
2021,01,04,01,31,17.90
2021,01,04,01,32,21.60
2021,01,04,01,33,21.00
2021,01,04,01,34,14.70
2021,01,04,01,35,11.30
2021,01,04,01,36,21.20
2021,01,04,01,37,20.90
2021,01,04,01,38,19.50
2021,01,04,01,39,24.00
2021,01,04,01,40,16.30
2021,01,04,01,41,15.90
2021,01,04,01,42,19.00
2021,01,04,01,43,19.50
2021,01,04,01,44,23.10
2021,01,04,01,45,23.60
2021,01,04,01,46,17.50
2021,01,04,01,47,19.50
2021,01,04,01,48,20.00
2021,01,04,01,49,19.40
2021,01,04,01,50,11.90
2021,01,04,01,51,17.40
2021,01,04,01,52,14.80
2021,01,04,01,53,26.30
2021,01,04,01,54,17.60
2021,01,04,01,55,16.20
2021,01,04,01,56,24.10
2021,01,04,01,57,17.00
2021,01,04,01,58,16.30
2021,01,04,01,59,18.90
2021,01,04,02,00,22.30
2021,01,04,02,01,19.10
2021,01,04,02,02,18.70
2021,01,04,02,03,22.70
2021,01,04,02,04,24.10
2021,01,04,02,05,21.30
2021,01,04,02,06,28.30
2021,01,04,02,07,24.10
2021,01,04,02,08,20.30
2021,01,04,02,09,23.00
2021,01,04,02,10,23.50
2021,01,04,02,11,21.20
2021,01,04,02,12,22.90
2021,01,04,02,13,23.80
2021,01,04,02,14,24.20
2021,01,04,02,15,24.70
2021,01,04,02,16,22.90
2021,01,04,02,17,19.40
2021,01,04,02,18,22.50
2021,01,04,02,19,20.80
2021,01,04,02,20,22.70
2021,01,04,02,21,24.50
2021,01,04,02,22,18.50
2021,01,04,02,23,17.20
2021,01,04,02,24,18.70
2021,01,04,02,25,17.80
2021,01,04,02,26,20.90
2021,01,04,02,27,14.60
2021,01,04,02,28,16.80
2021,01,04,02,29,16.30
2021,01,04,02,30,15.70
2021,01,04,02,31,22.70
2021,01,04,02,32,15.40
2021,01,04,02,33,21.70
2021,01,04,02,34,21.60
2021,01,04,02,35,19.40
2021,01,04,02,36,16.50
2021,01,04,02,37,18.20
2021,01,04,02,38,17.60
2021,01,04,02,39,14.40
2021,01,04,02,40,16.80
2021,01,04,02,41,14.10
2021,01,04,02,42,11.60
2021,01,04,02,43,16.90
2021,01,04,02,44,23.40
2021,01,04,02,45,17.50
2021,01,04,02,46,14.00
2021,01,04,02,47,9.30
2021,01,04,02,48,16.00
2021,01,04,02,49,10.10
2021,01,04,02,50,15.20
2021,01,04,02,51,12.70
2021,01,04,02,52,14.20
2021,01,04,02,53,17.40
2021,01,04,02,54,13.70
2021,01,04,02,55,16.20
2021,01,04,02,56,14.10
2021,01,04,02,57,9.90
2021,01,04,02,58,10.10
2021,01,04,02,59,9.70
2021,01,04,03,00,21.20
2021,01,04,03,01,20.20
2021,01,04,03,02,19.20
2021,01,04,03,03,17.90
2021,01,04,03,04,18.50
2021,01,04,03,05,13.80
2021,01,04,03,06,15.10
2021,01,04,03,07,19.70
2021,01,04,03,08,15.80
2021,01,04,03,09,28.80
2021,01,04,03,10,24.70
2021,01,04,03,11,23.20
2021,01,04,03,12,30.50
2021,01,04,03,13,28.60
2021,01,04,03,14,33.30
2021,01,04,03,15,29.60
2021,01,04,03,16,38.60
2021,01,04,03,17,26.60
2021,01,04,03,18,36.50
2021,01,04,03,19,26.80
2021,01,04,03,20,28.60
2021,01,04,03,21,31.10
2021,01,04,03,22,31.80
2021,01,04,03,23,33.30
2021,01,04,03,24,40.10
2021,01,04,03,25,42.10
2021,01,04,03,26,34.70
2021,01,04,03,27,45.60
2021,01,04,03,28,39.50
2021,01,04,03,29,42.10
2021,01,04,03,30,29.10
2021,01,04,03,31,22.40
2021,01,04,03,32,37.70
2021,01,04,03,33,34.40
2021,01,04,03,34,32.30
2021,01,04,03,35,40.20
2021,01,04,03,36,46.20
2021,01,04,03,37,39.60
2021,01,04,03,38,36.80
2021,01,04,03,39,32.10
2021,01,04,03,40,34.20
2021,01,04,03,41,32.90
2021,01,04,03,42,32.30
2021,01,04,03,43,35.20
2021,01,04,03,44,28.40
2021,01,04,03,45,33.00
2021,01,04,03,46,30.30
2021,01,04,03,47,32.50
2021,01,04,03,48,29.10
2021,01,04,03,49,26.60
2021,01,04,03,50,24.10
2021,01,04,03,51,28.60
2021,01,04,03,52,23.20
2021,01,04,03,53,25.90
2021,01,04,03,54,15.50
2021,01,04,03,55,15.90
2021,01,04,03,56,13.60
2021,01,04,03,57,9.90
2021,01,04,03,58,13.60
2021,01,04,03,59,9.80
2021,01,04,04,00,7.30
2021,01,04,04,01,9.80
2021,01,04,04,02,13.60
2021,01,04,04,03,10.80
2021,01,04,04,04,11.10
2021,01,04,04,05,14.20
2021,01,04,04,06,18.40
2021,01,04,04,07,11.00
2021,01,04,04,08,10.00
2021,01,04,04,09,8.50
2021,01,04,04,10,11.40
2021,01,04,04,11,11.70
2021,01,04,04,12,16.20
2021,01,04,04,13,8.90
2021,01,04,04,14,7.30
2021,01,04,04,15,11.90
2021,01,04,04,16,10.00
2021,01,04,04,17,9.60
2021,01,04,04,18,10.10
2021,01,04,04,19,13.10
2021,01,04,04,20,17.80
2021,01,04,04,21,23.40
2021,01,04,04,22,16.60
2021,01,04,04,23,31.20
2021,01,04,04,24,36.30
2021,01,04,04,25,28.00
2021,01,04,04,26,33.20
2021,01,04,04,27,24.10
2021,01,04,04,28,30.90
2021,01,04,04,29,32.20
2021,01,04,04,30,44.30
2021,01,04,04,31,41.00
2021,01,04,04,32,40.40
2021,01,04,04,33,25.00
2021,01,04,04,34,33.30
2021,01,04,04,35,36.40
2021,01,04,04,36,32.80
2021,01,04,04,37,31.40
2021,01,04,04,38,37.00
2021,01,04,04,39,34.60
2021,01,04,04,40,31.00
2021,01,04,04,41,24.90
2021,01,04,04,42,28.80
2021,01,04,04,43,32.40
2021,01,04,04,44,27.40
2021,01,04,04,45,24.10
2021,01,04,04,46,19.90
2021,01,04,04,47,27.40
2021,01,04,04,48,19.70
2021,01,04,04,49,20.40
2021,01,04,04,50,20.30
2021,01,04,04,51,22.90
2021,01,04,04,52,20.30
2021,01,04,04,53,21.20
2021,01,04,04,54,21.50
2021,01,04,04,55,18.40
2021,01,04,04,56,24.30
2021,01,04,04,57,26.40
2021,01,04,04,58,28.60
2021,01,04,04,59,22.70
2021,01,04,05,00,21.70
2021,01,04,05,01,23.40
2021,01,04,05,02,21.10
2021,01,04,05,03,28.20
2021,01,04,05,04,28.10
2021,01,04,05,05,18.80
2021,01,04,05,06,20.10
2021,01,04,05,07,20.60
2021,01,04,05,08,19.10
2021,01,04,05,09,20.40
2021,01,04,05,10,17.40
2021,01,04,05,11,21.00
2021,01,04,05,12,17.30
2021,01,04,05,13,19.90
2021,01,04,05,14,21.10
2021,01,04,05,15,15.70
2021,01,04,05,16,14.60
2021,01,04,05,17,16.40
2021,01,04,05,18,13.60
2021,01,04,05,19,21.00
2021,01,04,05,20,14.20
2021,01,04,05,21,11.40
2021,01,04,05,22,13.80
2021,01,04,05,23,17.80
2021,01,04,05,24,12.80
2021,01,04,05,25,17.00
2021,01,04,05,26,16.80
2021,01,04,05,27,16.40
2021,01,04,05,28,12.80
2021,01,04,05,29,7.00
2021,01,04,05,30,9.40
2021,01,04,05,31,7.30
2021,01,04,05,32,7.20
2021,01,04,05,33,7.90
2021,01,04,05,34,4.40
2021,01,04,05,35,6.80
2021,01,04,05,36,7.80
2021,01,04,05,37,9.10
2021,01,04,05,38,5.50
2021,01,04,05,39,7.50
2021,01,04,05,40,9.30
2021,01,04,05,41,10.60
2021,01,04,05,42,7.60
2021,01,04,05,43,8.40
2021,01,04,05,44,5.90
2021,01,04,05,45,6.10
2021,01,04,05,46,5.40
2021,01,04,05,47,4.00
2021,01,04,05,48,3.50
2021,01,04,05,49,3.00
2021,01,04,05,50,4.00
2021,01,04,05,51,3.80
2021,01,04,05,52,3.70
2021,01,04,05,53,2.70
2021,01,04,05,54,5.20
2021,01,04,05,55,1.70
2021,01,04,05,56,2.10
2021,01,04,05,57,4.90
2021,01,04,05,58,4.80
2021,01,04,05,59,6.00
2021,01,04,06,00,3.90
2021,01,04,06,01,3.10
2021,01,04,06,02,5.40
2021,01,04,06,03,5.40
2021,01,04,06,04,2.70
2021,01,04,06,05,7.20
2021,01,04,06,06,5.10
2021,01,04,06,07,7.20
2021,01,04,06,08,11.90
2021,01,04,06,09,6.70
2021,01,04,06,10,9.40
2021,01,04,06,11,9.50
2021,01,04,06,12,10.40
2021,01,04,06,13,9.20
2021,01,04,06,14,10.40
2021,01,04,06,15,11.00
2021,01,04,06,16,10.30
2021,01,04,06,17,7.60
2021,01,04,06,18,8.80
2021,01,04,06,19,6.80
2021,01,04,06,20,7.30
2021,01,04,06,21,9.20
2021,01,04,06,22,5.50
2021,01,04,06,23,5.50
2021,01,04,06,24,3.10
2021,01,04,06,25,5.20
2021,01,04,06,26,3.60
2021,01,04,06,27,4.80
2021,01,04,06,28,6.90
2021,01,04,06,29,5.50
2021,01,04,06,30,2.70
2021,01,04,06,31,5.10
2021,01,04,06,32,3.40
2021,01,04,06,33,3.00
2021,01,04,06,34,4.10
2021,01,04,06,35,3.10
2021,01,04,06,36,4.60
2021,01,04,06,37,6.10
2021,01,04,06,38,6.30
2021,01,04,06,39,4.90
2021,01,04,06,40,10.40
2021,01,04,06,41,9.00
2021,01,04,06,42,6.40
2021,01,04,06,43,5.30
2021,01,04,06,44,4.70
2021,01,04,06,45,7.40
2021,01,04,06,46,5.10
2021,01,04,06,47,3.20
2021,01,04,06,48,5.30
2021,01,04,06,49,6.20
2021,01,04,06,50,7.40
2021,01,04,06,51,4.60
2021,01,04,06,52,2.70
2021,01,04,06,53,1.40
2021,01,04,06,54,1.30
2021,01,04,06,55,4.60
2021,01,04,06,56,4.20
2021,01,04,06,57,7.80
2021,01,04,06,58,3.60
2021,01,04,06,59,4.20
2021,01,04,07,00,3.20
2021,01,04,07,01,2.00
2021,01,04,07,02,1.00
2021,01,04,07,03,2.40
2021,01,04,07,04,5.60
2021,01,04,07,05,12.00
2021,01,04,07,06,12.30
2021,01,04,07,07,11.10
2021,01,04,07,08,8.50
2021,01,04,07,09,10.10
2021,01,04,07,10,7.40
2021,01,04,07,11,8.10
2021,01,04,07,12,7.90
2021,01,04,07,13,7.90
2021,01,04,07,14,9.10
2021,01,04,07,15,10.90
2021,01,04,07,16,15.00
2021,01,04,07,17,12.00
2021,01,04,07,18,16.00
2021,01,04,07,19,12.40
2021,01,04,07,20,9.40
2021,01,04,07,21,5.50
2021,01,04,07,22,6.10
2021,01,04,07,23,4.20
2021,01,04,07,24,4.80
2021,01,04,07,25,5.20
2021,01,04,07,26,8.10
2021,01,04,07,27,8.80
2021,01,04,07,28,9.40
2021,01,04,07,29,5.10
2021,01,04,07,30,4.90
2021,01,04,07,31,5.80
2021,01,04,07,32,6.20
2021,01,04,07,33,3.60
2021,01,04,07,34,1.00
2021,01,04,07,35,1.60
2021,01,04,07,36,2.60
2021,01,04,07,37,2.70
2021,01,04,07,38,2.60
2021,01,04,07,39,2.30
2021,01,04,07,40,3.70
2021,01,04,07,41,4.50
2021,01,04,07,42,5.20
2021,01,04,07,43,3.60
2021,01,04,07,44,4.20
2021,01,04,07,45,6.70
2021,01,04,07,46,9.50
2021,01,04,07,47,4.90
2021,01,04,07,48,3.10
2021,01,04,07,49,3.40
2021,01,04,07,50,2.70
2021,01,04,07,51,2.90
2021,01,04,07,52,3.60
2021,01,04,07,53,8.20
2021,01,04,07,54,6.30
2021,01,04,07,55,4.60
2021,01,04,07,56,3.00
2021,01,04,07,57,3.20
2021,01,04,07,58,3.50
2021,01,04,07,59,1.90
2021,01,04,08,00,1.70
2021,01,04,08,01,0.10
2021,01,04,08,02,0.70
2021,01,04,08,03,1.20
2021,01,04,08,04,1.00
2021,01,04,08,05,0.80
2021,01,04,08,06,2.30
2021,01,04,08,07,1.60
2021,01,04,08,08,0.80
2021,01,04,08,09,0.50
2021,01,04,08,10,3.40
2021,01,04,08,11,3.20
2021,01,04,08,12,2.60
2021,01,04,08,13,0.40
2021,01,04,08,14,0.70
2021,01,04,08,15,2.70
2021,01,04,08,16,5.60
2021,01,04,08,17,3.40
2021,01,04,08,18,3.40
2021,01,04,08,19,3.70
2021,01,04,08,20,3.90
2021,01,04,08,21,3.00
2021,01,04,08,22,3.00
2021,01,04,08,23,3.50
2021,01,04,08,24,2.30
2021,01,04,08,25,2.10
2021,01,04,08,26,1.60
2021,01,04,08,27,2.80
2021,01,04,08,28,2.80
2021,01,04,08,29,2.40
2021,01,04,08,30,1.60
2021,01,04,08,31,1.80
2021,01,04,08,32,1.30
2021,01,04,08,33,2.90
2021,01,04,08,34,2.00
2021,01,04,08,35,2.60
2021,01,04,08,36,4.70
2021,01,04,08,37,4.10
2021,01,04,08,38,4.80
2021,01,04,08,39,3.10
2021,01,04,08,40,3.10
2021,01,04,08,41,2.60
2021,01,04,08,42,4.00
2021,01,04,08,43,5.20
2021,01,04,08,44,4.60
2021,01,04,08,45,3.20
2021,01,04,08,46,4.50
2021,01,04,08,47,4.00
2021,01,04,08,48,3.60
2021,01,04,08,49,3.70
2021,01,04,08,50,4.80
2021,01,04,08,51,5.70
2021,01,04,08,52,6.30
2021,01,04,08,53,4.50
2021,01,04,08,54,3.70
2021,01,04,08,55,4.20
2021,01,04,08,56,4.10
2021,01,04,08,57,2.60
2021,01,04,08,58,4.20
2021,01,04,08,59,1.90
2021,01,04,09,00,1.10
2021,01,04,09,01,1.70
2021,01,04,09,02,2.90
2021,01,04,09,03,4.00
2021,01,04,09,04,2.20
2021,01,04,09,05,3.90
2021,01,04,09,06,4.30
2021,01,04,09,07,3.50
2021,01,04,09,08,3.60
2021,01,04,09,09,3.90
2021,01,04,09,10,3.40
2021,01,04,09,11,2.90
2021,01,04,09,12,0.90
2021,01,04,09,13,1.30
2021,01,04,09,14,2.00
2021,01,04,09,15,0.20
2021,01,04,09,16,0.20
2021,01,04,09,17,1.10
2021,01,04,09,18,0.90
2021,01,04,09,19,1.20
2021,01,04,09,20,0.10
2021,01,04,09,21,2.20
2021,01,04,09,22,1.60
2021,01,04,09,23,0.40
2021,01,04,09,24,1.70
2021,01,04,09,25,5.10
2021,01,04,09,26,7.40
2021,01,04,09,27,3.60
2021,01,04,09,28,4.60
2021,01,04,09,29,2.00
2021,01,04,09,30,1.10
2021,01,04,09,31,1.20
2021,01,04,09,32,1.70
2021,01,04,09,33,1.70
2021,01,04,09,34,2.90
2021,01,04,09,35,3.30
2021,01,04,09,36,3.20
2021,01,04,09,37,2.80
2021,01,04,09,38,2.30
2021,01,04,09,39,2.70
2021,01,04,09,40,1.90
2021,01,04,09,41,2.60
2021,01,04,09,42,1.90
2021,01,04,09,43,1.60
2021,01,04,09,44,1.00
2021,01,04,09,45,1.80
2021,01,04,09,46,1.60
2021,01,04,09,47,1.80
2021,01,04,09,48,0.90
2021,01,04,09,49,0.80
2021,01,04,09,50,0.90
2021,01,04,09,51,0.90
2021,01,04,09,52,1.40
2021,01,04,09,53,0.90
2021,01,04,09,54,2.00
2021,01,04,09,55,1.00
2021,01,04,09,56,1.00
2021,01,04,09,57,4.60
2021,01,04,09,58,7.20
2021,01,04,09,59,6.30
2021,01,04,10,00,3.80
2021,01,04,10,01,1.80
2021,01,04,10,02,0.80
2021,01,04,10,03,0.00
2021,01,04,10,04,0.20
2021,01,04,10,05,0.30
2021,01,04,10,06,1.70
2021,01,04,10,07,4.50
2021,01,04,10,08,5.70
2021,01,04,10,09,6.10
2021,01,04,10,10,5.50
2021,01,04,10,11,3.20
2021,01,04,10,12,2.40
2021,01,04,10,13,2.10
2021,01,04,10,14,2.40
2021,01,04,10,15,3.00
2021,01,04,10,16,2.50
2021,01,04,10,17,4.90
2021,01,04,10,18,4.10
2021,01,04,10,19,4.80
2021,01,04,10,20,2.90
2021,01,04,10,21,1.90
2021,01,04,10,22,3.00
2021,01,04,10,23,3.10
2021,01,04,10,24,2.70
2021,01,04,10,25,2.60
2021,01,04,10,26,2.30
2021,01,04,10,27,0.70
2021,01,04,10,28,2.40
2021,01,04,10,29,2.90
2021,01,04,10,30,2.20
2021,01,04,10,31,1.70
2021,01,04,10,32,1.50
2021,01,04,10,33,1.90
2021,01,04,10,34,2.40
2021,01,04,10,35,2.00
2021,01,04,10,36,3.10
2021,01,04,10,37,2.20
2021,01,04,10,38,4.60
2021,01,04,10,39,3.60
2021,01,04,10,40,4.00
2021,01,04,10,41,4.80
2021,01,04,10,42,3.70
2021,01,04,10,43,1.70
2021,01,04,10,44,2.70
2021,01,04,10,45,2.30
2021,01,04,10,46,2.60
2021,01,04,10,47,3.40
2021,01,04,10,48,2.30
2021,01,04,10,49,2.00
2021,01,04,10,50,2.20
2021,01,04,10,51,2.20
2021,01,04,10,52,3.90
2021,01,04,10,53,3.60
2021,01,04,10,54,2.20
2021,01,04,10,55,2.30
2021,01,04,10,56,2.90
2021,01,04,10,57,3.00
2021,01,04,10,58,2.20
2021,01,04,10,59,2.70
2021,01,04,11,00,5.40
2021,01,04,11,01,3.00
2021,01,04,11,02,4.90
2021,01,04,11,03,5.10
2021,01,04,11,04,6.20
2021,01,04,11,05,5.20
2021,01,04,11,06,5.20
2021,01,04,11,07,4.90
2021,01,04,11,08,5.10
2021,01,04,11,09,4.60
2021,01,04,11,10,3.70
2021,01,04,11,11,4.90
2021,01,04,11,12,4.80
2021,01,04,11,13,5.70
2021,01,04,11,14,3.50
2021,01,04,11,15,6.30
2021,01,04,11,16,4.40
2021,01,04,11,17,6.00
2021,01,04,11,18,9.70
2021,01,04,11,19,9.00
2021,01,04,11,20,5.80
2021,01,04,11,21,4.80
2021,01,04,11,22,4.50
2021,01,04,11,23,4.30
2021,01,04,11,24,4.70
2021,01,04,11,25,5.90
2021,01,04,11,26,5.20
2021,01,04,11,27,5.40
2021,01,04,11,28,4.50
2021,01,04,11,29,3.30
2021,01,04,11,30,4.40
2021,01,04,11,31,5.00
2021,01,04,11,32,3.70
2021,01,04,11,33,3.00
2021,01,04,11,34,2.70
2021,01,04,11,35,4.20
2021,01,04,11,36,5.20
2021,01,04,11,37,4.50
2021,01,04,11,38,5.30
2021,01,04,11,39,4.60
2021,01,04,11,40,3.90
2021,01,04,11,41,3.20
2021,01,04,11,42,1.30
2021,01,04,11,43,2.10
2021,01,04,11,44,2.10
2021,01,04,11,45,4.10
2021,01,04,11,46,3.90
2021,01,04,11,47,4.20
2021,01,04,11,48,4.20
2021,01,04,11,49,3.40
2021,01,04,11,50,4.50
2021,01,04,11,51,7.60
2021,01,04,11,52,6.30
2021,01,04,11,53,7.80
2021,01,04,11,54,6.70
2021,01,04,11,55,5.00
2021,01,04,11,56,3.20
2021,01,04,11,57,7.60
2021,01,04,11,58,4.90
2021,01,04,11,59,4.20
2021,01,04,12,00,5.50
2021,01,04,12,01,3.40
2021,01,04,12,02,2.80
2021,01,04,12,03,4.60
2021,01,04,12,04,3.50
2021,01,04,12,05,6.40
2021,01,04,12,06,5.40
2021,01,04,12,07,6.90
2021,01,04,12,08,6.70
2021,01,04,12,09,6.80
2021,01,04,12,10,5.50
2021,01,04,12,11,6.60
2021,01,04,12,12,7.10
2021,01,04,12,13,4.70
2021,01,04,12,14,2.90
2021,01,04,12,15,1.40
2021,01,04,12,16,2.90
2021,01,04,12,17,2.00
2021,01,04,12,18,1.90
2021,01,04,12,19,3.00
2021,01,04,12,20,0.50
2021,01,04,12,21,1.70
2021,01,04,12,22,3.00
2021,01,04,12,23,3.70
2021,01,04,12,24,6.90
2021,01,04,12,25,4.10
2021,01,04,12,26,4.50
2021,01,04,12,27,4.20
2021,01,04,12,28,6.90
2021,01,04,12,29,8.80
2021,01,04,12,30,6.90
2021,01,04,12,31,6.80
2021,01,04,12,32,5.30
2021,01,04,12,33,4.90
2021,01,04,12,34,4.20
2021,01,04,12,35,5.50
2021,01,04,12,36,5.10
2021,01,04,12,37,4.80
2021,01,04,12,38,4.00
2021,01,04,12,39,4.10
2021,01,04,12,40,3.90
2021,01,04,12,41,5.40
2021,01,04,12,42,4.20
2021,01,04,12,43,4.00
2021,01,04,12,44,4.20
2021,01,04,12,45,2.30
2021,01,04,12,46,3.70
2021,01,04,12,47,4.80
2021,01,04,12,48,4.00
2021,01,04,12,49,5.70
2021,01,04,12,50,6.30
2021,01,04,12,51,5.80
2021,01,04,12,52,6.00
2021,01,04,12,53,4.80
2021,01,04,12,54,4.80
2021,01,04,12,55,5.70
2021,01,04,12,56,4.80
2021,01,04,12,57,4.60
2021,01,04,12,58,4.90
2021,01,04,12,59,4.40
2021,01,04,13,00,4.00
2021,01,04,13,01,3.70
2021,01,04,13,02,2.20
2021,01,04,13,03,3.50
2021,01,04,13,04,2.20
2021,01,04,13,05,2.60
2021,01,04,13,06,3.90
2021,01,04,13,07,2.50
2021,01,04,13,08,2.30
2021,01,04,13,09,6.30
2021,01,04,13,10,6.00
2021,01,04,13,11,6.60
2021,01,04,13,12,5.10
2021,01,04,13,13,6.00
2021,01,04,13,14,4.40
2021,01,04,13,15,6.10
2021,01,04,13,16,5.40
2021,01,04,13,17,5.60
2021,01,04,13,18,6.80
2021,01,04,13,19,6.00
2021,01,04,13,20,5.70
2021,01,04,13,21,5.90
2021,01,04,13,22,4.00
2021,01,04,13,23,4.80
2021,01,04,13,24,4.40
2021,01,04,13,25,3.40
2021,01,04,13,26,2.10
2021,01,04,13,27,2.60
2021,01,04,13,28,2.50
2021,01,04,13,29,0.60
2021,01,04,13,30,3.30
2021,01,04,13,31,2.90
2021,01,04,13,32,3.10
2021,01,04,13,33,3.80
2021,01,04,13,34,4.20
2021,01,04,13,35,3.60
2021,01,04,13,36,1.80
2021,01,04,13,37,0.90
2021,01,04,13,38,1.70
2021,01,04,13,39,2.60
2021,01,04,13,40,2.90
2021,01,04,13,41,1.90
2021,01,04,13,42,4.10
2021,01,04,13,43,2.40
2021,01,04,13,44,1.60
2021,01,04,13,45,3.50
2021,01,04,13,46,4.80
2021,01,04,13,47,4.90
2021,01,04,13,48,5.30
2021,01,04,13,49,4.10
2021,01,04,13,50,4.70
2021,01,04,13,51,2.50
2021,01,04,13,52,2.90
2021,01,04,13,53,3.40
2021,01,04,13,54,4.60
2021,01,04,13,55,2.40
2021,01,04,13,56,4.30
2021,01,04,13,57,5.50
2021,01,04,13,58,6.00
2021,01,04,13,59,6.50
2021,01,04,14,00,5.10
2021,01,04,14,01,4.40
2021,01,04,14,02,5.20
2021,01,04,14,03,7.00
2021,01,04,14,04,5.70
2021,01,04,14,05,4.40
2021,01,04,14,06,3.20
2021,01,04,14,07,7.30
2021,01,04,14,08,8.00
2021,01,04,14,09,7.00
2021,01,04,14,10,6.10
2021,01,04,14,11,5.90
2021,01,04,14,12,7.10
2021,01,04,14,13,6.90
2021,01,04,14,14,6.20
2021,01,04,14,15,6.00
2021,01,04,14,16,4.20
2021,01,04,14,17,5.40
2021,01,04,14,18,7.20
2021,01,04,14,19,8.70
2021,01,04,14,20,6.00
2021,01,04,14,21,7.40
2021,01,04,14,22,7.20
2021,01,04,14,23,6.50
2021,01,04,14,24,7.30
2021,01,04,14,25,5.40
2021,01,04,14,26,5.90
2021,01,04,14,27,3.70
2021,01,04,14,28,2.70
2021,01,04,14,29,2.40
2021,01,04,14,30,6.70
2021,01,04,14,31,7.80
2021,01,04,14,32,5.70
2021,01,04,14,33,4.50
2021,01,04,14,34,6.10
2021,01,04,14,35,5.90
2021,01,04,14,36,7.40
2021,01,04,14,37,7.60
2021,01,04,14,38,6.40
2021,01,04,14,39,3.40
2021,01,04,14,40,4.10
2021,01,04,14,41,3.30
2021,01,04,14,42,3.80
2021,01,04,14,43,3.80
2021,01,04,14,44,5.20
2021,01,04,14,45,4.40
2021,01,04,14,46,4.80
2021,01,04,14,47,3.80
2021,01,04,14,48,3.40
2021,01,04,14,49,4.50
2021,01,04,14,50,5.60
2021,01,04,14,51,4.80
2021,01,04,14,52,5.70
2021,01,04,14,53,8.60
2021,01,04,14,54,6.00
2021,01,04,14,55,6.40
2021,01,04,14,56,5.70
2021,01,04,14,57,5.10
2021,01,04,14,58,7.30
2021,01,04,14,59,6.80
2021,01,04,15,00,5.10
2021,01,04,15,01,6.30
2021,01,04,15,02,3.90
2021,01,04,15,03,5.10
2021,01,04,15,04,3.70
2021,01,04,15,05,3.70
2021,01,04,15,06,3.20
2021,01,04,15,07,3.20
2021,01,04,15,08,4.80
2021,01,04,15,09,3.40
2021,01,04,15,10,2.60
2021,01,04,15,11,3.00
2021,01,04,15,12,2.70
2021,01,04,15,13,3.60
2021,01,04,15,14,3.20
2021,01,04,15,15,1.60
2021,01,04,15,16,3.50
2021,01,04,15,17,2.80
2021,01,04,15,18,2.00
2021,01,04,15,19,3.10
2021,01,04,15,20,3.30
2021,01,04,15,21,4.10
2021,01,04,15,22,4.70
2021,01,04,15,23,3.70
2021,01,04,15,24,1.50
2021,01,04,15,25,3.40
2021,01,04,15,26,1.90
2021,01,04,15,27,1.30
2021,01,04,15,28,3.80
2021,01,04,15,29,2.90
2021,01,04,15,30,2.30
2021,01,04,15,31,3.00
2021,01,04,15,32,1.80
2021,01,04,15,33,1.70
2021,01,04,15,34,0.50
2021,01,04,15,35,3.20
2021,01,04,15,36,2.90
2021,01,04,15,37,2.40
2021,01,04,15,38,1.90
2021,01,04,15,39,2.00
2021,01,04,15,40,2.00
2021,01,04,15,41,1.80
2021,01,04,15,42,2.10
2021,01,04,15,43,2.50
2021,01,04,15,44,1.00
2021,01,04,15,45,1.40
2021,01,04,15,46,0.90
2021,01,04,15,47,1.80
2021,01,04,15,48,3.40
2021,01,04,15,49,2.90
2021,01,04,15,50,3.10
2021,01,04,15,51,3.20
2021,01,04,15,52,3.40
2021,01,04,15,53,2.40
2021,01,04,15,54,2.60
2021,01,04,15,55,2.70
2021,01,04,15,56,3.90
2021,01,04,15,57,2.60
2021,01,04,15,58,2.80
2021,01,04,15,59,3.20
2021,01,04,16,00,2.00
2021,01,04,16,01,1.70
2021,01,04,16,02,2.40
2021,01,04,16,03,4.00
2021,01,04,16,04,2.40
2021,01,04,16,05,3.00
2021,01,04,16,06,2.50
2021,01,04,16,07,2.80
2021,01,04,16,08,3.70
2021,01,04,16,09,2.50
2021,01,04,16,10,4.20
2021,01,04,16,11,3.60
2021,01,04,16,12,4.00
2021,01,04,16,13,2.60
2021,01,04,16,14,2.50
2021,01,04,16,15,2.10
2021,01,04,16,16,2.80
2021,01,04,16,17,2.70
2021,01,04,16,18,1.90
2021,01,04,16,19,1.90
2021,01,04,16,20,1.70
2021,01,04,16,21,1.30
2021,01,04,16,22,1.90
2021,01,04,16,23,1.10
2021,01,04,16,24,1.10
2021,01,04,16,25,1.30
2021,01,04,16,26,1.50
2021,01,04,16,27,0.80
2021,01,04,16,28,1.10
2021,01,04,16,29,1.00
2021,01,04,16,30,1.70
2021,01,04,16,31,3.00
2021,01,04,16,32,3.90
2021,01,04,16,33,3.30
2021,01,04,16,34,2.60
2021,01,04,16,35,2.20
2021,01,04,16,36,1.80
2021,01,04,16,37,1.30
2021,01,04,16,38,1.90
2021,01,04,16,39,2.50
2021,01,04,16,40,2.00
2021,01,04,16,41,1.90
2021,01,04,16,42,1.70
2021,01,04,16,43,2.20
2021,01,04,16,44,2.20
2021,01,04,16,45,2.10
2021,01,04,16,46,2.30
2021,01,04,16,47,1.50
2021,01,04,16,48,1.00
2021,01,04,16,49,0.60
2021,01,04,16,50,1.00
2021,01,04,16,51,1.00
2021,01,04,16,52,0.70
2021,01,04,16,53,1.40
2021,01,04,16,54,1.40
2021,01,04,16,55,1.60
2021,01,04,16,56,0.70
2021,01,04,16,57,0.00
2021,01,04,16,58,0.20
2021,01,04,16,59,1.00
2021,01,04,17,00,2.10
2021,01,04,17,01,2.00
2021,01,04,17,02,2.50
2021,01,04,17,03,2.60
2021,01,04,17,04,2.30
2021,01,04,17,05,1.70
2021,01,04,17,06,0.70
2021,01,04,17,07,0.30
2021,01,04,17,08,0.00
2021,01,04,17,09,0.60
2021,01,04,17,10,1.90
2021,01,04,17,11,1.60
2021,01,04,17,12,2.40
2021,01,04,17,13,2.60
2021,01,04,17,14,2.00
2021,01,04,17,15,2.20
2021,01,04,17,16,2.10
2021,01,04,17,17,1.90
2021,01,04,17,18,1.70
2021,01,04,17,19,1.40
2021,01,04,17,20,1.10
2021,01,04,17,21,1.50
2021,01,04,17,22,1.40
2021,01,04,17,23,1.20
2021,01,04,17,24,0.80
2021,01,04,17,25,1.50
2021,01,04,17,26,1.20
2021,01,04,17,27,1.90
2021,01,04,17,28,2.30
2021,01,04,17,29,2.50
2021,01,04,17,30,2.40
2021,01,04,17,31,2.70
2021,01,04,17,32,3.50
2021,01,04,17,33,3.40
2021,01,04,17,34,4.60
2021,01,04,17,35,4.60
2021,01,04,17,36,3.70
2021,01,04,17,37,3.60
2021,01,04,17,38,5.00
2021,01,04,17,39,6.20
2021,01,04,17,40,4.60
2021,01,04,17,41,2.90
2021,01,04,17,42,2.90
2021,01,04,17,43,3.00
2021,01,04,17,44,2.00
2021,01,04,17,45,2.40
2021,01,04,17,46,2.90
2021,01,04,17,47,2.10
2021,01,04,17,48,2.70
2021,01,04,17,49,2.00
2021,01,04,17,50,5.40
2021,01,04,17,51,4.30